Hourly Data Report for October 18, 2015

All times are specified in Local Standard Time (LST). Add 1 hour to adjust for Daylight Saving Time where and when it is observed.

SAINT JOHN A
NEW BRUNSWICK

45°18'58.000" N
65°53'24.000" W
108.80 m
8104901
71609
YSJ

Download Data

Hourly Data (October 2015)
Hourly Data Report for October 18, 2015
Temp Definition
°C
Dew Point Temp Definition
°C
Rel Hum Definition
%
Wind Dir Definition
10's deg

Wind Spd Definition
km/h
Visibility Definition
km
Stn Press Definition
kPa
Hmdx Definition


Wind Chill Definition


Weather Definition


TIME
00:00 Legend Double Dagger 2.2 1.0 92 33 25 24.1 99.98     LegendNANA
01:00 Legend Double Dagger 1.3 0.0 91 33 18 24.1 100.01     LegendNANA
02:00 Legend Double Dagger 0.6 -0.3 94 32 14 19.3 100.05     Mostly Cloudy
03:00 Legend Double Dagger 0.3 -0.4 95 31 9 16.1 100.06     LegendNANA
04:00 Legend Double Dagger -0.3 -1.2 94 33 16 16.1 100.10   -5 LegendNANA
05:00 Legend Double Dagger -0.2 -1.1 94 32 13 12.9 100.15   -4 Mostly Cloudy
06:00
07:00 Legend Double Dagger 0.0 -1.6 89 33 18 24.1 100.23   -5 LegendNANA
08:00 Legend Double Dagger 0.1 -1.7 88 33 17 24.1 100.30     Mostly Cloudy
09:00 Legend Double Dagger 0.4 -2.0 84 33 21 24.1 100.35     LegendNANA
10:00 Legend Double Dagger 1.4 -2.6 75 33 19 24.1 100.37     LegendNANA
11:00 Legend Double Dagger 1.5 -3.4 70 32 23 24.1 100.37     Mostly Cloudy
12:00 Legend Double Dagger 3.7 -4.5 55 31 23 24.1 100.34     LegendNANA
13:00 Legend Double Dagger 3.6 -6.1 49 29 20 24.1 100.32     LegendNANA
14:00 Legend Double Dagger 3.3 -7.3 46 31 28 24.1 100.31     Mostly Cloudy
15:00 Legend Double Dagger 2.2 -6.9 51 33 27 24.1 100.36     LegendNANA
16:00 Legend Double Dagger 2.3 -7.6 48 32 21 24.1 100.40     LegendNANA
17:00 Legend Double Dagger 1.5 -7.1 53 31 15 24.1 100.45     Snow Showers
18:00 Legend Double Dagger 0.8 -6.3 59 32 23 24.1 100.51     Snow Showers
19:00 Legend Double Dagger -0.8 -5.6 70 30 8 24.1 100.55   -4 LegendNANA
20:00 Legend Double Dagger -1.1 -5.3 73 29 10 24.1 100.55   -5 Clear
21:00 Legend Double Dagger -1.1 -4.5 78 29 13 24.1 100.55   -5 LegendNANA
22:00 Legend Double Dagger -0.9 -4.8 75 30 17 24.1 100.55   -6 LegendNANA
23:00 Legend Double Dagger -1.1 -4.8 76 32 19 24.1 100.55   -6 Clear

Notes on Data Quality.

Legend

  • E = Estimated
  • M = Missing
  • NA = Not Available
  • ‡ = Partner data that is not subject to review by the National Climate Archives
Date modified: